146  
ASUS42 KILM 250713  
RWRILM  
RWRILM  
REGIONAL HOURLY WEATHER ROUNDUP  
NATIONAL WEATHER SERVICE WILMINGTON NC  
300 AM EDT MON JUN 25 2018  
 
NOTE: "FAIR" INDICATES FEW OR NO CLOUDS BELOW 12,000 FEET WITH NO  
SIGNIFICANT WEATHER AND/OR S TO VISIBILITY
.  
   
..............WFO WILMINGTON COUNTY WARNING AREA............
 
 
   
.....COASTAL NC AND SC COUNTIES...
 
 
 
CITY SKY/WX TMP DP RH WIND PRES REMARKS
 
WILMINGTON FAIR 76 72 87 SE6 29.99F  
N MYRTLE BEACH FAIR 79 71 76 S9 30.01R  
MYRTLE BEACH FAIR 77 67 71 W6 30.03R  
   
.....INLAND NC AND SC COUNTIES....
 
 
 
CITY SKY/WX TMP DP RH WIND PRES REMARKS
 
LUMBERTON FAIR 76 72 87 S6 30.00R  
ELIZABETHTOWN NOT AVBL  
WHITEVILLE FAIR 73 72 94 CALM 29.99R  
FLORENCE FAIR 77 68 73 W8 30.01S  
DARLINGTON N/A 77 68 73 W7 30.01S  
KINGSTREE FAIR 72 70 94 CALM 30.01S  
HARTSVILLE FAIR 73 66 78 SW6 30.01R  
BENNETTSVILLE FAIR 75 68 78 S5 29.99F  
CONWAY FAIR 73 70 88 CALM 30.02R  
GEORGETOWN FAIR 72 72 100 SW7 30.03S  
MARION FAIR 75 68 78 W5 30.01R  
   
...................REST OF NORTH CAROLINA...................
 
 
   
........EASTERN NC......
 
 
 
CITY SKY/WX TMP DP RH WIND PRES REMARKS
 
CAPE HATTERAS MOCLDY 82 76 81 VRB3 29.97F  
JACKSONVILLE FAIR 73 68 84 S9 30.00F  
MOREHEAD CITY FAIR 78 68 71 SW21G35 29.98R  
KENANSVILLE FAIR 70 68 94 S3 30.00R  
NEW BERN FAIR 72 70 93 SW12 29.99S  
ELIZABETH CITY FAIR 76 74 93 SW10 29.95R  
   
........CENTRAL NC......
 
 
 
CITY SKY/WX TMP DP RH WIND PRES REMARKS
 
RALEIGH DURHAM CLOUDY 75 72 90 SW3 29.98S  
ROCKY MOUNT MOCLDY 74 70 87 SW7 29.98R  
ROANOKE RAPIDS NOT AVBL  
FAYETTEVILLE FAIR 76 71 85 S10 29.98R  
HOFFMAN FAIR 78 66 67 SW7 29.99S  
   
........WESTERN NC......
 
 
 
CITY SKY/WX TMP DP RH WIND PRES REMARKS
 
CHARLOTTE FAIR 73 71 93 CALM 30.00F  
GREENSBORO MOCLDY 77 67 71 NW5 30.00S  
HICKORY NOT AVBL  
BOONE NOT AVBL  
ASHEVILLE NOT AVBL  
   
....................REST OF SOUTH CAROLINA..................
 
 
   
........EASTERN SC......
 
 
 
CITY SKY/WX TMP DP RH WIND PRES REMARKS
 
CHARLESTON LGT RAIN 74 71 91 SW6 29.99F  
BEAUFORT MCAS FAIR 73 72 96 S5 30.05F THUNDER  
HILTON HEAD FAIR 72 70 94 E6 30.08F  
   
........CENTRAL SC......
 
 
 
CITY SKY/WX TMP DP RH WIND PRES REMARKS
 
COLUMBIA MOCLDY 74 69 85 S6 30.00F  
ORANGEBURG FAIR 70 66 87 S6 30.04R  
SUMTER SHAW FAIR 74 67 78 SW8 29.99F  
   
........WESTERN SC......
 
 
 
CITY SKY/WX TMP DP RH WIND PRES REMARKS
 
GREENVILLE NOT AVBL  
ROCK HILL FAIR 72 69 90 SW5 30.01F  
ANDERSON FAIR 70 68 93 NW5 30.05R  
CLEMSON NOT AVBL  
GREENWOOD FAIR 72 69 90 W5 30.03F  
 
   
..................COASTAL AND OFFSHORE REPORTS...............
 
 
   
...............LOCAL PIERS AND NC RESERVE.............
 
 
 
STATION/POSITION TIME SKY/WX TEMP WIND PRES VSBY
 
AIR SEA DIR/SP/G  
(UTC) (F) (DEG/KT/KT) (MB) (MI)  
JOHNY MRCER PIER 0642 80 79 150/ 13/ 14 1016.0F  
NC RESRV MASNBRO NOT AVBL  
OCEAN CREST PIER NOT AVBL  
SPRINGMAID PIER 0642 1019.3R  
 
   
...............COASTAL AND OFFSHORE BUOYS.............
 
 
 
STATION/POSITION TIME SKY/WX TEMP WIND PRES VSBY
 
AIR SEA DIR/SP/G  
(UTC) (F) (DEG/KT/KT) (MB) (MI)  
DIMNDSHOAL 41025 0700 82 79 230/ 19/ 25 1014.8  
CAPE LOOKOUT 0700 240/ 25/ 31 1015.1S  
ONSLOW BAY 41036 NOT AVBL  
ONSLOW BAY 41064 0608 76 82 210/ 17/ 23 1017.1F  
ONSLOW BAY 41159 0700 82 N/A  
WVE H/P(F/S)= 4/ 5  
 
MASNBO INL 41110 0700 80 N/A  
WVE H/P(F/S)= 3/ 5  
 
WILM HARBR 41108 0700 82 N/A  
WVE H/P(F/S)= 4/ 5  
 
27SE WRITB 41037 0608 77 82 150/ 12/ 17 N/A  
FRYING PAN 41013 0700 81 82 210/ 17/ 23 1015.7  
SUNST NRSH 41024 0608 82 81 200/ 17/ 23 1015.5F  
CAPRS NRSH 41029 0608 76 80 260/ 25/ 37 1016.3F  
EDISTO 41004 0650 220/ 14/ 16 1017.6F  
WVE H/P(F/S)= 3/ 5  
 
   
.........OFFSHORE BUOYS BEYOND 100 NM OFFSHORE........
 
   
....IN A TRIANGLE---HAT TO BERMUDA TO BAHAMAS TO HAT..
 
 
 
 
STATION/POSITION TIME SKY/WX TEMP WIND PRES VSBY
 
AIR SEA DIR/SP/G  
(UTC) (F) (DEG/KT/KT) (MB) (MI)  
150E HAT 41001 NOT AVBL  
W BERMUDA 41048 0700 80 220/ 12/ 16 1020.9  
ATLANTIC S 41049 0650 82 130/ 12/ 16 1023.4F  
WVE H/P(F/S)= 4/ 8 SWL H/P/D(F/S/D)= 3/140/ 8  
 
E BAHAMAS 41046 0700 81 82 120/ 10/ 14 1020.9  
NE BAHAMAS 41047 0650 160/ 8/ 12 1021.4F  
WVE H/P(F/S)= 4/ 7 SWL H/P/D(F/S/D)= 3/140/ 7  
 
120E CANVRL41010 0650 83 83 180/ 12/ 14 1018.2F  
WVE H/P(F/S)= 3/ 6 SWL H/P/D(F/S/D)= 2/120/ 6  
 
END  
 
 
CLICK HERE TO GO TO PREVIOUS BULLETINS.

The Nexlab NC Page
The Nexlab SC Page Main Text Page